User: anonymous   Login
Location: Newark
(48.1500°N, 2.9667°W)
Time: 14:17:08
(UTC+00:00)
Language:

STARLINK-1062 - Orbit

View from above orbital plane
View from above orbital plane
View from above satellite
View from above satellite

Ground track
Ground track

The orbit data is extracted from the following two-line orbital elements,

1 44767U 19074BG  20057.25002315 -.00004964  00000-0 -32173-3 0  9995
2 44767  53.0296  38.0672 0001546  56.6553 234.5758 15.05580596 16282
Epoch (UTC): 26 February 2020 06:00:02
Eccentricity: 0.0001546
inclination: 53.0296°
perigee height: 548 km
apogee height: 551 km
right ascension of ascending node: 38.0672°
argument of perigee: 56.6553°
revolutions per day: 15.05580596
mean anomaly at epoch: 234.5758°
orbit number at epoch: 1628

The dashed part of the orbit path shows where the satellite is in the earth's shadow,  

DLR